COSMOS 1275 DEB, 14558

Orbit data source: Space-Track

COSMOS 1275 DEB, 14558 is space debris in LEO originally from a launch on Thu, 04 Jun 1981 UTC launched from the Plesetsk Missile And Space Complex (PKMTR). Debris objects in space refer to the collection of defunct objects orbiting the Earth. Examples of debris include non-operational satellites, rocket bodies, and fragments generated from explosions, collisions, or faulty payload assembly.

Loading next visibility...
Identifier
14558, 1981-053JN
Orbit
LEO
Country
Flag of CISCIS
Related business
Manufacturer
Unknown
Mission
Spacecraft
Bus & Motor
Unknown
Mass
Unknown
Launch date (UTC)
1981-06-04 (45 years ago)
Launch vehicle
Unknown
Launch site
Plesetsk Missile And Space Complex (PKMTR)
Object type
Payload
Rocket body
Debris
Shape & HBR
Unknown shape, 0.1 m
Radar Cross Section
Small (<0.1 m²)

Expand to show TLE details & history
Last TLE update: 8 hours ago

TLE from 8 hours ago
0 COSMOS 1275 DEB
1 14558U 81053JN  25349.95101962  .00003910  00000-0  12866-2 0  9994
2 14558  82.9205 159.2672 0013979  51.2961 102.1211 14.37977698267279
Epoch: 2025-12-15T22:49Z
TLE epoch observation values (Epoch: 2025-12-15T22:49:28.095Z)
Latitude
26.24408°
Longitude
-91.43374°
Altitude
770.553 km
Speed
7.47 km/s
True Right ascension
22h 23m 06s
True Declination
26° 06' 29"
Sunlit
Object was in daylight at epoch
Visualization orbit readout
Latitude
Unknown
Longitude
Unknown
Altitude
Unknown
Speed
Unknown
Apparent Right ascension
Unknown
Apparent Declination
Unknown
Sunlit
N/A
Visualization observer readout
Local Sidereal Time
05:17:50
Azimuth
Unknown
Elevation
Unknown
Doppler factor
Unknown
Orbital elements
Apogee altitude
772.233 km
Perigee altitude
752.269 km
Semi-major axis
7,140.388 km
Eccentricity
0.0014
Inclination
82.9205°
RAAN
159.2672°
Arg. of periapsis
51.2961°
True anomaly
102.27766°
Mean anomaly
102.1211°
Eccentric anomaly
102.19939°
Mean motion
3.59717 °/min
Orbital period
100.08 mins
BSTAR
0.0012866
Loading maneuver chart data...
Computing Atmospheric mass density...
Loading historical data...
Loading historical data...
Loading historical data...
Loading historical data...
Loading historical data...
Loading historical data...
Loading historical data...

Documentation

Showing up to 5 results
|